Time,TemperatureF,DewpointF,PressureIn,WindDirection,WindDirectionDegrees,WindSpeedMPH,WindSpeedGustMPH,Humidity,HourlyPrecipIn,Conditions,Clouds,dailyrainin,SolarRadiationWatts/m^2,SoftwareType,DateUTC
2013-12-18 00:00:00,35.9,18.6,30.16,South,191,7.0,12.0,49,0.00,,---,0.00,0.00,VWS V14.01,2013-12-18 06:00:00,
2013-12-18 00:02:00,35.8,18.5,30.15,South,190,6.0,10.0,49,0.00,,---,0.00,0.00,VWS V14.01,2013-12-18 06:02:00,
2013-12-18 00:07:00,35.8,19.0,30.15,South,184,3.0,11.0,50,0.00,,---,0.00,0.00,VWS V14.01,2013-12-18 06:07:00,
2013-12-18 00:12:00,35.6,18.8,30.15,South,190,7.0,11.0,50,0.00,,---,0.00,0.00,VWS V14.01,2013-12-18 06:12:00,
2013-12-18 00:17:00,35.5,18.7,30.14,SSW,196,5.0,11.0,50,0.00,,---,0.00,0.00,VWS V14.01,2013-12-18 06:17:00,
2013-12-18 00:22:00,35.3,18.5,30.14,South,190,6.0,11.0,50,0.00,,---,0.00,0.00,VWS V14.01,2013-12-18 06:22:00,
2013-12-18 00:27:00,35.3,18.5,30.14,South,180,6.0,12.0,50,0.00,,---,0.00,0.00,VWS V14.01,2013-12-18 06:27:00,
2013-12-18 00:30:00,35.3,18.5,30.13,SSW,200,5.0,12.0,50,0.00,,---,0.00,0.00,VWS V14.01,2013-12-18 06:30:00,
2013-12-18 00:32:00,35.3,18.5,30.13,SSW,200,5.0,11.0,50,0.00,,---,0.00,0.00,VWS V14.01,2013-12-18 06:32:00,
2013-12-18 00:37:00,35.5,18.7,30.13,SSW,200,10.0,12.0,50,0.00,,---,0.00,0.00,VWS V14.01,2013-12-18 06:37:00,
2013-12-18 00:42:00,35.5,18.7,30.12,South,188,10.0,12.0,50,0.00,,---,0.00,0.00,VWS V14.01,2013-12-18 06:42:00,
2013-12-18 00:47:00,35.6,18.8,30.12,South,189,5.0,12.0,50,0.00,,---,0.00,0.00,VWS V14.01,2013-12-18 06:47:00,
2013-12-18 00:52:00,35.6,18.8,30.12,South,185,5.0,12.0,50,0.00,,---,0.00,0.00,VWS V14.01,2013-12-18 06:52:00,
2013-12-18 00:57:00,35.5,18.7,30.11,South,184,9.0,12.0,50,0.00,,---,0.00,0.00,VWS V14.01,2013-12-18 06:57:00,
2013-12-18 01:00:00,35.5,18.7,30.11,SSW,194,5.0,13.0,50,0.00,,---,0.00,0.00,VWS V14.01,2013-12-18 07:00:00,
2013-12-18 01:02:00,35.5,18.7,30.11,SSE,168,7.0,13.0,50,0.00,,---,0.00,0.00,VWS V14.01,2013-12-18 07:02:00,
2013-12-18 01:07:00,35.6,18.8,30.10,South,189,12.0,16.0,50,0.00,,---,0.00,0.00,VWS V14.01,2013-12-18 07:07:00,
2013-12-18 01:12:00,35.8,19.0,30.10,SSW,198,7.0,17.0,50,0.00,,---,0.00,0.00,VWS V14.01,2013-12-18 07:12:00,
2013-12-18 01:17:00,35.9,18.6,30.10,SSW,196,8.0,17.0,49,0.00,,---,0.00,0.00,VWS V14.01,2013-12-18 07:17:00,
2013-12-18 01:22:00,35.9,18.6,30.10,South,181,4.0,17.0,49,0.00,,---,0.00,0.00,VWS V14.01,2013-12-18 07:22:00,
2013-12-18 01:27:00,35.9,19.1,30.09,South,183,6.0,17.0,50,0.00,,---,0.00,0.00,VWS V14.01,2013-12-18 07:27:00,
2013-12-18 01:30:00,35.9,19.1,30.09,South,190,8.0,17.0,50,0.00,,---,0.00,0.00,VWS V14.01,2013-12-18 07:30:00,
2013-12-18 01:32:00,35.9,19.1,30.09,South,186,10.0,10.0,50,0.00,,---,0.00,0.00,VWS V14.01,2013-12-18 07:32:00,
2013-12-18 01:37:00,36.0,19.2,30.09,South,181,7.0,10.0,50,0.00,,---,0.00,0.00,VWS V14.01,2013-12-18 07:37:00,
2013-12-18 01:42:00,36.3,19.5,30.09,South,184,9.0,11.0,50,0.00,,---,0.00,0.00,VWS V14.01,2013-12-18 07:42:00,
2013-12-18 01:47:00,36.9,19.5,30.08,SSW,197,4.0,14.0,49,0.00,,---,0.00,0.00,VWS V14.01,2013-12-18 07:47:00,
2013-12-18 01:52:00,37.6,19.7,30.08,SSE,165,6.0,14.0,48,0.00,,---,0.00,0.00,VWS V14.01,2013-12-18 07:52:00,
2013-12-18 01:57:00,38.0,20.1,30.08,South,180,8.0,15.0,48,0.00,,---,0.00,0.00,VWS V14.01,2013-12-18 07:57:00,
2013-12-18 02:00:00,38.2,19.8,30.08,South,174,8.0,15.0,47,0.00,,---,0.00,0.00,VWS V14.01,2013-12-18 08:00:00,
2013-12-18 02:02:00,38.3,19.9,30.08,SSE,155,8.0,18.0,47,0.00,,---,0.00,0.00,VWS V14.01,2013-12-18 08:02:00,
2013-12-18 02:07:00,38.6,20.1,30.08,SW,218,12.0,18.0,47,0.00,,---,0.00,0.00,VWS V14.01,2013-12-18 08:07:00,
2013-12-18 02:12:00,38.8,19.8,30.08,SSW,198,4.0,18.0,46,0.00,,---,0.00,0.00,VWS V14.01,2013-12-18 08:12:00,
2013-12-18 02:17:00,38.8,19.8,30.07,South,186,8.0,18.0,46,0.00,,---,0.00,0.00,VWS V14.01,2013-12-18 08:17:00,
2013-12-18 02:22:00,38.8,19.8,30.07,South,181,5.0,18.0,46,0.00,,---,0.00,0.00,VWS V14.01,2013-12-18 08:22:00,
2013-12-18 02:27:00,39.1,20.1,30.07,SW,215,0.0,18.0,46,0.00,,---,0.00,0.00,VWS V14.01,2013-12-18 08:27:00,
2013-12-18 02:30:00,39.2,20.2,30.07,South,191,11.0,18.0,46,0.00,,---,0.00,0.00,VWS V14.01,2013-12-18 08:30:00,
2013-12-18 02:32:00,39.5,19.9,30.07,SW,215,6.0,15.0,45,0.00,,---,0.00,0.00,VWS V14.01,2013-12-18 08:32:00,
2013-12-18 02:37:00,39.8,20.2,30.07,SSW,194,6.0,15.0,45,0.00,,---,0.00,0.00,VWS V14.01,2013-12-18 08:37:00,
2013-12-18 02:42:00,39.9,20.3,30.07,South,182,11.0,15.0,45,0.00,,---,0.00,0.00,VWS V14.01,2013-12-18 08:42:00,
2013-12-18 02:47:00,40.2,20.6,30.06,SSW,201,7.0,15.0,45,0.00,,---,0.00,0.00,VWS V14.01,2013-12-18 08:47:00,
2013-12-18 02:52:00,40.5,20.3,30.06,South,180,9.0,15.0,44,0.00,,---,0.00,0.00,VWS V14.01,2013-12-18 08:52:00,
2013-12-18 02:57:00,40.6,20.4,30.06,SSW,207,9.0,15.0,44,0.00,,---,0.00,0.00,VWS V14.01,2013-12-18 08:57:00,
2013-12-18 03:00:00,40.5,20.3,30.06,South,188,13.0,15.0,44,0.00,,---,0.00,0.00,VWS V14.01,2013-12-18 09:00:00,
2013-12-18 03:02:00,40.5,20.9,30.06,SSE,156,14.0,17.0,45,0.00,,---,0.00,0.00,VWS V14.01,2013-12-18 09:02:00,
2013-12-18 03:07:00,40.5,20.9,30.05,SSW,200,10.0,17.0,45,0.00,,---,0.00,0.00,VWS V14.01,2013-12-18 09:07:00,
2013-12-18 03:12:00,40.3,20.7,30.05,SSW,206,11.0,17.0,45,0.00,,---,0.00,0.00,VWS V14.01,2013-12-18 09:12:00,
2013-12-18 03:17:00,40.1,21.0,30.05,South,175,13.0,17.0,46,0.00,,---,0.00,0.00,VWS V14.01,2013-12-18 09:17:00,
2013-12-18 03:22:00,39.9,20.8,30.05,South,190,7.0,17.0,46,0.00,,---,0.00,0.00,VWS V14.01,2013-12-18 09:22:00,
2013-12-18 03:27:00,39.9,21.3,30.05,SSW,204,10.0,17.0,47,0.00,,---,0.00,0.00,VWS V14.01,2013-12-18 09:27:00,
2013-12-18 03:30:00,39.9,21.3,30.05,South,182,10.0,17.0,47,0.00,,---,0.00,0.00,VWS V14.01,2013-12-18 09:30:00,
2013-12-18 03:32:00,39.9,21.3,30.05,SSE,154,12.0,16.0,47,0.00,,---,0.00,0.00,VWS V14.01,2013-12-18 09:32:00,
2013-12-18 03:37:00,39.8,21.2,30.04,South,184,8.0,16.0,47,0.00,,---,0.00,0.00,VWS V14.01,2013-12-18 09:37:00,
2013-12-18 03:42:00,39.5,21.5,30.04,South,173,7.0,16.0,48,0.00,,---,0.00,0.00,VWS V14.01,2013-12-18 09:42:00,
2013-12-18 03:47:00,39.5,21.5,30.04,South,189,4.0,16.0,48,0.00,,---,0.00,0.00,VWS V14.01,2013-12-18 09:47:00,
2013-12-18 03:52:00,39.2,21.7,30.03,SSW,198,11.0,16.0,49,0.00,,---,0.00,0.00,VWS V14.01,2013-12-18 09:52:00,
2013-12-18 03:57:00,39.2,21.7,30.03,SSW,195,14.0,16.0,49,0.00,,---,0.00,0.00,VWS V14.01,2013-12-18 09:57:00,
2013-12-18 04:00:00,39.1,21.6,30.03,SSW,202,13.0,16.0,49,0.00,,---,0.00,0.00,VWS V14.01,2013-12-18 10:00:00,
2013-12-18 04:02:00,39.1,22.0,30.03,SSW,192,10.0,12.0,50,0.00,,---,0.00,0.00,VWS V14.01,2013-12-18 10:02:00,
2013-12-18 04:07:00,39.1,22.0,30.02,South,184,6.0,14.0,50,0.00,,---,0.00,0.00,VWS V14.01,2013-12-18 10:07:00,
2013-12-18 04:12:00,39.1,22.5,30.02,South,177,8.0,14.0,51,0.00,,---,0.00,0.00,VWS V14.01,2013-12-18 10:12:00,
2013-12-18 04:17:00,39.1,22.5,30.02,SSW,201,8.0,14.0,51,0.00,,---,0.00,0.00,VWS V14.01,2013-12-18 10:17:00,
2013-12-18 04:22:00,39.1,23.0,30.02,SSW,199,8.0,14.0,52,0.00,,---,0.00,0.00,VWS V14.01,2013-12-18 10:22:00,
2013-12-18 04:27:00,39.1,23.0,30.01,SSW,192,7.0,14.0,52,0.00,,---,0.00,0.00,VWS V14.01,2013-12-18 10:27:00,
2013-12-18 04:30:00,39.2,23.1,30.02,SSW,198,12.0,14.0,52,0.00,,---,0.00,0.00,VWS V14.01,2013-12-18 10:30:00,
2013-12-18 04:32:00,39.2,23.1,30.01,South,190,7.0,12.0,52,0.00,,---,0.00,0.00,VWS V14.01,2013-12-18 10:32:00,
2013-12-18 04:37:00,39.2,23.1,30.01,South,171,8.0,19.0,52,0.00,,---,0.00,0.00,VWS V14.01,2013-12-18 10:37:00,
2013-12-18 04:42:00,39.3,23.6,30.01,SSW,205,5.0,19.0,53,0.00,,---,0.00,0.00,VWS V14.01,2013-12-18 10:42:00,
2013-12-18 04:47:00,39.3,23.6,30.00,South,185,11.0,19.0,53,0.00,,---,0.00,0.00,VWS V14.01,2013-12-18 10:47:00,
2013-12-18 04:52:00,39.3,23.6,30.00,South,171,8.0,19.0,53,0.00,,---,0.00,0.00,VWS V14.01,2013-12-18 10:52:00,
2013-12-18 04:57:00,39.2,24.0,30.00,SSW,192,9.0,19.0,54,0.00,,---,0.00,0.00,VWS V14.01,2013-12-18 10:57:00,
2013-12-18 05:00:00,39.2,24.0,30.00,South,173,12.0,19.0,54,0.00,,---,0.00,0.00,VWS V14.01,2013-12-18 11:00:00,
2013-12-18 05:02:00,39.2,24.0,30.00,South,178,11.0,14.0,54,0.00,,---,0.00,0.00,VWS V14.01,2013-12-18 11:02:00,
2013-12-18 05:07:00,39.3,24.1,29.99,SSW,211,8.0,18.0,54,0.00,,---,0.00,0.00,VWS V14.01,2013-12-18 11:07:00,
2013-12-18 05:12:00,39.3,24.1,29.99,SSW,196,9.0,18.0,54,0.00,,---,0.00,0.00,VWS V14.01,2013-12-18 11:12:00,
2013-12-18 05:14:00,39.2,24.0,29.99,South,174,12.0,18.0,54,0.00,,---,0.00,0.00,VWS V14.01,2013-12-18 11:14:00,
2013-12-18 05:19:00,39.2,24.0,29.99,South,170,12.0,19.0,54,0.00,,---,0.00,0.00,VWS V14.01,2013-12-18 11:19:00,
2013-12-18 05:24:00,39.2,24.0,29.99,South,178,9.0,20.0,54,0.00,,---,0.00,0.00,VWS V14.01,2013-12-18 11:24:00,
2013-12-18 05:29:00,39.2,24.4,29.99,SSW,196,13.0,20.0,55,0.00,,---,0.00,0.00,VWS V14.01,2013-12-18 11:29:00,
2013-12-18 05:30:00,39.2,24.4,29.99,South,175,19.0,20.0,55,0.00,,---,0.00,0.00,VWS V14.01,2013-12-18 11:30:00,
2013-12-18 05:34:00,39.3,24.5,29.98,SSW,196,7.0,19.0,55,0.00,,---,0.00,0.00,VWS V14.01,2013-12-18 11:34:00,
2013-12-18 05:39:00,39.3,24.5,29.98,South,175,4.0,19.0,55,0.00,,---,0.00,0.00,VWS V14.01,2013-12-18 11:39:00,
2013-12-18 05:44:00,39.2,24.4,29.98,SSW,196,14.0,19.0,55,0.00,,---,0.00,0.00,VWS V14.01,2013-12-18 11:44:00,
2013-12-18 05:49:00,39.2,24.4,29.98,SSE,168,13.0,19.0,55,0.00,,---,0.00,0.00,VWS V14.01,2013-12-18 11:49:00,
2013-12-18 05:54:00,39.3,24.5,29.97,South,172,13.0,19.0,55,0.00,,---,0.00,0.00,VWS V14.01,2013-12-18 11:54:00,
2013-12-18 05:59:00,39.3,24.5,29.97,SSW,208,11.0,19.0,55,0.00,,---,0.00,0.00,VWS V14.01,2013-12-18 11:59:00,
2013-12-18 06:00:00,39.3,24.5,29.97,SSE,165,12.0,19.0,55,0.00,,---,0.00,0.00,VWS V14.01,2013-12-18 12:00:00,
2013-12-18 06:04:00,39.5,24.7,29.97,SSW,206,11.0,13.0,55,0.00,,---,0.00,0.00,VWS V14.01,2013-12-18 12:04:00,
2013-12-18 06:09:00,39.6,24.8,29.97,South,181,7.0,15.0,55,0.00,,---,0.00,0.00,VWS V14.01,2013-12-18 12:09:00,
2013-12-18 06:14:00,39.6,24.8,29.96,South,188,11.0,15.0,55,0.00,,---,0.00,0.00,VWS V14.01,2013-12-18 12:14:00,
2013-12-18 06:19:00,39.6,24.8,29.96,SSW,194,9.0,15.0,55,0.00,,---,0.00,0.00,VWS V14.01,2013-12-18 12:19:00,
2013-12-18 06:24:00,39.8,25.0,29.96,SSW,207,9.0,15.0,55,0.00,,---,0.00,0.00,VWS V14.01,2013-12-18 12:24:00,
2013-12-18 06:29:00,39.9,25.1,29.96,South,185,6.0,15.0,55,0.00,,---,0.00,0.00,VWS V14.01,2013-12-18 12:29:00,
2013-12-18 06:30:00,39.9,25.1,29.96,South,182,6.0,15.0,55,0.00,,---,0.00,0.00,VWS V14.01,2013-12-18 12:30:00,
2013-12-18 06:34:00,39.9,25.1,29.95,SSW,196,7.0,11.0,55,0.00,,---,0.00,0.00,VWS V14.01,2013-12-18 12:34:00,
2013-12-18 06:39:00,40.1,25.2,29.95,South,185,8.0,12.0,55,0.00,,---,0.00,0.00,VWS V14.01,2013-12-18 12:39:00,
2013-12-18 06:44:00,40.2,25.3,29.94,SSE,161,9.0,13.0,55,0.00,,---,0.00,0.00,VWS V14.01,2013-12-18 12:44:00,
2013-12-18 06:49:00,40.2,25.3,29.94,South,181,12.0,13.0,55,0.00,,---,0.00,0.00,VWS V14.01,2013-12-18 12:49:00,
2013-12-18 06:54:00,40.3,25.4,29.94,SSE,168,5.0,13.0,55,0.00,,---,0.00,0.00,VWS V14.01,2013-12-18 12:54:00,
2013-12-18 06:59:00,40.5,25.6,29.94,SSE,165,9.0,13.0,55,0.00,,---,0.00,0.00,VWS V14.01,2013-12-18 12:59:00,
2013-12-18 07:00:00,40.5,25.6,29.94,SSE,150,8.0,13.0,55,0.00,,---,0.00,0.00,VWS V14.01,2013-12-18 13:00:00,
2013-12-18 07:04:00,41.1,25.7,29.94,South,172,4.0,15.0,54,0.00,,---,0.00,0.00,VWS V14.01,2013-12-18 13:04:00,
2013-12-18 07:09:00,41.5,25.7,29.94,South,190,6.0,16.0,53,0.00,,---,0.00,0.00,VWS V14.01,2013-12-18 13:09:00,
2013-12-18 07:14:00,41.6,25.3,29.94,SSE,168,11.0,16.0,52,0.00,,---,0.00,0.00,VWS V14.01,2013-12-18 13:14:00,
2013-12-18 07:19:00,41.6,25.3,29.93,SSE,167,10.0,16.0,52,0.00,,---,0.00,0.00,VWS V14.01,2013-12-18 13:19:00,
2013-12-18 07:24:00,41.6,25.3,29.93,South,186,6.0,16.0,52,0.00,,---,0.00,0.00,VWS V14.01,2013-12-18 13:24:00,
2013-12-18 07:29:00,41.6,25.8,29.93,SSE,155,11.0,16.0,53,0.00,,---,0.00,0.00,VWS V14.01,2013-12-18 13:29:00,
2013-12-18 07:30:00,41.6,25.8,29.93,South,180,8.0,16.0,53,0.00,,---,0.00,0.00,VWS V14.01,2013-12-18 13:30:00,
2013-12-18 07:34:00,41.5,25.7,29.93,SSE,168,9.0,16.0,53,0.00,,---,0.00,0.00,VWS V14.01,2013-12-18 13:34:00,
2013-12-18 07:39:00,41.5,25.7,29.92,South,187,8.0,16.0,53,0.00,,---,0.00,5.00,VWS V14.01,2013-12-18 13:39:00,
2013-12-18 07:44:00,41.5,25.7,29.92,SSW,202,5.0,16.0,53,0.00,,---,0.00,5.00,VWS V14.01,2013-12-18 13:44:00,
2013-12-18 07:49:00,41.6,25.8,29.93,South,171,6.0,16.0,53,0.00,,---,0.00,11.00,VWS V14.01,2013-12-18 13:49:00,
2013-12-18 07:54:00,42.1,25.8,29.92,South,188,9.0,16.0,52,0.00,,---,0.00,18.00,VWS V14.01,2013-12-18 13:54:00,
2013-12-18 07:59:00,42.3,25.9,29.92,South,188,12.0,16.0,52,0.00,,---,0.00,21.00,VWS V14.01,2013-12-18 13:59:00,
2013-12-18 08:00:00,42.3,25.9,29.92,SSW,206,11.0,16.0,52,0.00,,---,0.00,21.00,VWS V14.01,2013-12-18 14:00:00,
2013-12-18 08:04:00,42.8,26.4,29.92,SSW,198,6.0,17.0,52,0.00,,---,0.00,32.00,VWS V14.01,2013-12-18 14:04:00,
2013-12-18 08:09:00,43.5,26.6,29.92,SSW,197,12.0,19.0,51,0.00,,---,0.00,53.00,VWS V14.01,2013-12-18 14:09:00,
2013-12-18 08:14:00,43.9,26.0,29.92,SW,219,11.0,19.0,49,0.00,,---,0.00,67.00,VWS V14.01,2013-12-18 14:14:00,
2013-12-18 08:19:00,44.3,26.4,29.92,South,185,16.0,19.0,49,0.00,,---,0.00,77.00,VWS V14.01,2013-12-18 14:19:00,
2013-12-18 08:24:00,44.6,26.1,29.92,South,181,8.0,19.0,48,0.00,,---,0.00,83.00,VWS V14.01,2013-12-18 14:24:00,
2013-12-18 08:29:00,44.8,26.3,29.92,SSW,205,12.0,19.0,48,0.00,,---,0.00,83.00,VWS V14.01,2013-12-18 14:29:00,
2013-12-18 08:30:00,44.8,26.3,29.92,SW,218,12.0,19.0,48,0.00,,---,0.00,83.00,VWS V14.01,2013-12-18 14:30:00,
2013-12-18 08:34:00,44.9,26.4,29.92,SSW,198,5.0,19.0,48,0.00,,---,0.00,109.00,VWS V14.01,2013-12-18 14:34:00,
2013-12-18 08:39:00,45.2,26.2,29.92,SSW,201,17.0,23.0,47,0.00,,---,0.00,127.00,VWS V14.01,2013-12-18 14:39:00,
2013-12-18 08:44:00,45.4,26.4,29.91,SW,218,8.0,23.0,47,0.00,,---,0.00,148.00,VWS V14.01,2013-12-18 14:44:00,
2013-12-18 08:49:00,45.7,26.6,29.91,SSW,199,10.0,23.0,47,0.00,,---,0.00,163.00,VWS V14.01,2013-12-18 14:49:00,
2013-12-18 08:54:00,45.8,26.2,29.91,SSW,199,13.0,23.0,46,0.00,,---,0.00,227.00,VWS V14.01,2013-12-18 14:54:00,
2013-12-18 08:59:00,46.2,26.6,29.90,SSW,209,8.0,23.0,46,0.00,,---,0.00,221.00,VWS V14.01,2013-12-18 14:59:00,
2013-12-18 09:00:00,46.2,26.6,29.90,SW,234,6.0,23.0,46,0.00,,---,0.00,221.00,VWS V14.01,2013-12-18 15:00:00,
2013-12-18 09:04:00,46.4,26.2,29.91,SW,219,5.0,17.0,45,0.00,,---,0.00,114.00,VWS V14.01,2013-12-18 15:04:00,
2013-12-18 09:09:00,46.5,26.9,29.91,SSW,202,12.0,17.0,46,0.00,,---,0.00,116.00,VWS V14.01,2013-12-18 15:09:00,
2013-12-18 09:14:00,46.7,26.5,29.91,SSE,159,5.0,17.0,45,0.00,,---,0.00,104.00,VWS V14.01,2013-12-18 15:14:00,
2013-12-18 09:19:00,47.0,26.8,29.91,SSW,196,10.0,18.0,45,0.00,,---,0.00,100.00,VWS V14.01,2013-12-18 15:19:00,
2013-12-18 09:24:00,47.1,26.9,29.91,SSW,202,11.0,20.0,45,0.00,,---,0.00,104.00,VWS V14.01,2013-12-18 15:24:00,
2013-12-18 09:29:00,47.4,27.1,29.90,SSW,193,5.0,21.0,45,0.00,,---,0.00,100.00,VWS V14.01,2013-12-18 15:29:00,
2013-12-18 09:30:00,47.4,27.1,29.90,SSW,212,8.0,21.0,45,0.00,,---,0.00,100.00,VWS V14.01,2013-12-18 15:30:00,
2013-12-18 09:34:00,47.6,26.8,29.90,SSW,212,12.0,15.0,44,0.00,,---,0.00,95.00,VWS V14.01,2013-12-18 15:34:00,
2013-12-18 09:39:00,47.7,26.9,29.90,SW,217,7.0,15.0,44,0.00,,---,0.00,102.00,VWS V14.01,2013-12-18 15:39:00,
2013-12-18 09:44:00,47.9,26.5,29.90,SSW,205,14.0,16.0,43,0.00,,---,0.00,118.00,VWS V14.01,2013-12-18 15:44:00,
2013-12-18 09:49:00,48.2,26.8,29.90,SW,217,11.0,20.0,43,0.00,,---,0.00,125.00,VWS V14.01,2013-12-18 15:49:00,
2013-12-18 09:54:00,48.5,27.0,29.90,South,190,8.0,20.0,43,0.00,,---,0.00,105.00,VWS V14.01,2013-12-18 15:54:00,
2013-12-18 09:59:00,48.6,26.6,29.90,SW,215,15.0,24.0,42,0.00,,---,0.00,95.00,VWS V14.01,2013-12-18 15:59:00,
2013-12-18 10:00:00,48.6,26.6,29.90,SW,215,14.0,24.0,42,0.00,,---,0.00,95.00,VWS V14.01,2013-12-18 16:00:00,
2013-12-18 10:04:00,48.6,26.6,29.89,WSW,238,5.0,20.0,42,0.00,,---,0.00,95.00,VWS V14.01,2013-12-18 16:04:00,
2013-12-18 10:09:00,48.6,26.6,29.89,South,175,5.0,20.0,42,0.00,,---,0.00,107.00,VWS V14.01,2013-12-18 16:09:00,
2013-12-18 10:14:00,48.9,26.8,29.89,SW,215,5.0,20.0,42,0.00,,---,0.00,141.00,VWS V14.01,2013-12-18 16:14:00,
2013-12-18 10:19:00,49.6,26.9,29.89,SSW,198,16.0,20.0,41,0.00,,---,0.00,116.00,VWS V14.01,2013-12-18 16:19:00,
2013-12-18 10:24:00,50.1,26.7,29.88,SW,236,12.0,22.0,40,0.00,,---,0.00,114.00,VWS V14.01,2013-12-18 16:24:00,
2013-12-18 10:29:00,51.0,26.9,29.88,SSW,196,13.0,22.0,39,0.00,,---,0.00,237.00,VWS V14.01,2013-12-18 16:29:00,
2013-12-18 10:30:00,51.0,26.9,29.88,SSW,213,19.0,22.0,39,0.00,,---,0.00,237.00,VWS V14.01,2013-12-18 16:30:00,
2013-12-18 10:34:00,51.7,26.9,29.88,SSW,194,19.0,22.0,38,0.00,,---,0.00,388.00,VWS V14.01,2013-12-18 16:34:00,
2013-12-18 10:39:00,52.3,26.2,29.88,South,180,17.0,27.0,36,0.00,,---,0.00,396.00,VWS V14.01,2013-12-18 16:39:00,
2013-12-18 10:44:00,52.8,26.6,29.88,SW,218,17.0,27.0,36,0.00,,---,0.00,355.00,VWS V14.01,2013-12-18 16:44:00,
2013-12-18 10:49:00,53.2,26.3,29.88,West,266,12.0,27.0,35,0.00,,---,0.00,446.00,VWS V14.01,2013-12-18 16:49:00,
2013-12-18 10:54:00,53.3,26.4,29.88,SSW,192,12.0,27.0,35,0.00,,---,0.00,454.00,VWS V14.01,2013-12-18 16:54:00,
2013-12-18 10:59:00,53.8,26.1,29.88,SW,217,17.0,27.0,34,0.00,,---,0.00,457.00,VWS V14.01,2013-12-18 16:59:00,
2013-12-18 11:00:00,53.8,26.1,29.88,SW,229,9.0,27.0,34,0.00,,---,0.00,457.00,VWS V14.01,2013-12-18 17:00:00,
2013-12-18 11:04:00,54.4,25.9,29.87,SW,219,10.0,24.0,33,0.00,,---,0.00,462.00,VWS V14.01,2013-12-18 17:04:00,
2013-12-18 11:09:00,55.1,25.8,29.87,SSW,208,12.0,24.0,32,0.00,,---,0.00,348.00,VWS V14.01,2013-12-18 17:09:00,
2013-12-18 11:14:00,55.3,26.0,29.87,WSW,241,10.0,24.0,32,0.00,,---,0.00,404.00,VWS V14.01,2013-12-18 17:14:00,
2013-12-18 11:19:00,55.9,25.7,29.87,SSW,204,9.0,24.0,31,0.00,,---,0.00,524.00,VWS V14.01,2013-12-18 17:19:00,
2013-12-18 11:24:00,56.2,26.0,29.86,South,173,11.0,24.0,31,0.00,,---,0.00,482.00,VWS V14.01,2013-12-18 17:24:00,
2013-12-18 11:29:00,56.5,25.5,29.86,WSW,238,11.0,24.0,30,0.00,,---,0.00,381.00,VWS V14.01,2013-12-18 17:29:00,
2013-12-18 11:30:00,56.5,25.5,29.86,WSW,238,11.0,24.0,30,0.00,,---,0.00,381.00,VWS V14.01,2013-12-18 17:30:00,
2013-12-18 11:34:00,56.6,24.7,29.85,SSW,205,6.0,23.0,29,0.00,,---,0.00,234.00,VWS V14.01,2013-12-18 17:34:00,
2013-12-18 11:39:00,56.9,25.0,29.85,SSW,192,21.0,23.0,29,0.00,,---,0.00,188.00,VWS V14.01,2013-12-18 17:39:00,
2013-12-18 11:44:00,56.9,25.0,29.84,SSW,209,19.0,23.0,29,0.00,,---,0.00,127.00,VWS V14.01,2013-12-18 17:44:00,
2013-12-18 11:49:00,56.9,25.0,29.84,SW,217,11.0,24.0,29,0.00,,---,0.00,378.00,VWS V14.01,2013-12-18 17:49:00,
2013-12-18 11:54:00,57.6,24.8,29.83,SSW,202,20.0,25.0,28,0.00,,---,0.00,188.00,VWS V14.01,2013-12-18 17:54:00,
2013-12-18 11:59:00,58.1,25.2,29.83,SSW,202,17.0,25.0,28,0.00,,---,0.00,174.00,VWS V14.01,2013-12-18 17:59:00,
2013-12-18 12:00:00,58.1,25.2,29.83,SSW,202,17.0,25.0,28,0.00,,---,0.00,174.00,VWS V14.01,2013-12-18 18:00:00,
2013-12-18 12:04:00,58.4,25.5,29.82,SSW,196,9.0,24.0,28,0.00,,---,0.00,457.00,VWS V14.01,2013-12-18 18:04:00,
2013-12-18 12:09:00,59.3,26.2,29.82,SSE,158,5.0,24.0,28,0.00,,---,0.00,473.00,VWS V14.01,2013-12-18 18:09:00,
2013-12-18 12:14:00,60.1,26.0,29.82,South,179,14.0,24.0,27,0.00,,---,0.00,399.00,VWS V14.01,2013-12-18 18:14:00,
2013-12-18 12:19:00,60.4,26.3,29.81,South,174,12.0,24.0,27,0.00,,---,0.00,220.00,VWS V14.01,2013-12-18 18:19:00,
2013-12-18 12:24:00,60.9,25.8,29.81,WSW,257,11.0,24.0,26,0.00,,---,0.00,408.00,VWS V14.01,2013-12-18 18:24:00,
2013-12-18 12:29:00,61.3,26.1,29.80,SW,232,18.0,18.0,26,0.00,,---,0.00,381.00,VWS V14.01,2013-12-18 18:29:00,
2013-12-18 12:30:00,61.3,26.1,29.80,SW,222,16.0,24.0,26,0.00,,---,0.00,401.00,VWS V14.01,2013-12-18 18:30:00,
2013-12-18 12:34:00,61.3,26.1,29.79,SSW,205,24.0,24.0,26,0.00,,---,0.00,348.00,VWS V14.01,2013-12-18 18:34:00,
2013-12-18 12:39:00,61.6,26.4,29.79,SW,214,10.0,24.0,26,0.00,,---,0.00,431.00,VWS V14.01,2013-12-18 18:39:00,
2013-12-18 12:44:00,62.1,26.8,29.79,SSW,194,16.0,24.0,26,0.00,,---,0.00,410.00,VWS V14.01,2013-12-18 18:44:00,
2013-12-18 12:49:00,62.6,26.3,29.78,South,184,14.0,27.0,25,0.00,,---,0.00,401.00,VWS V14.01,2013-12-18 18:49:00,
2013-12-18 12:54:00,62.9,26.6,29.78,SW,219,9.0,27.0,25,0.00,,---,0.00,406.00,VWS V14.01,2013-12-18 18:54:00,
2013-12-18 12:59:00,63.2,26.8,29.77,SW,219,16.0,19.0,25,0.00,,---,0.00,350.00,VWS V14.01,2013-12-18 18:59:00,
2013-12-18 13:00:00,63.2,26.8,29.77,SSW,195,19.0,27.0,25,0.00,,---,0.00,350.00,VWS V14.01,2013-12-18 19:00:00,
2013-12-18 13:04:00,63.7,26.3,29.77,SSW,205,7.0,25.0,24,0.00,,---,0.00,172.00,VWS V14.01,2013-12-18 19:04:00,
2013-12-18 13:09:00,64.2,25.7,29.77,SW,223,17.0,25.0,23,0.00,,---,0.00,107.00,VWS V14.01,2013-12-18 19:09:00,
2013-12-18 13:15:00,64.2,25.7,29.76,SSE,163,11.0,28.0,23,0.00,,---,0.00,88.00,VWS V14.01,2013-12-18 19:15:00,
2013-12-18 13:20:00,64.3,25.7,29.76,SSW,204,21.0,28.0,23,0.00,,---,0.00,91.00,VWS V14.01,2013-12-18 19:20:00,
2013-12-18 13:25:00,64.3,25.7,29.76,SSE,165,12.0,29.0,23,0.00,,---,0.00,98.00,VWS V14.01,2013-12-18 19:25:00,
2013-12-18 13:30:00,64.7,26.1,29.75,SSW,199,18.0,21.0,23,0.00,,---,0.00,102.00,VWS V14.01,2013-12-18 19:30:00,
2013-12-18 13:35:00,64.8,26.2,29.75,SSW,205,10.0,22.0,23,0.00,,---,0.00,104.00,VWS V14.01,2013-12-18 19:35:00,
2013-12-18 13:40:00,65.0,26.3,29.75,SSW,210,18.0,24.0,23,0.00,,---,0.00,104.00,VWS V14.01,2013-12-18 19:40:00,
2013-12-18 13:45:00,64.8,26.2,29.75,South,175,14.0,25.0,23,0.00,,---,0.00,102.00,VWS V14.01,2013-12-18 19:45:00,
2013-12-18 13:50:00,65.2,26.5,29.75,South,190,10.0,25.0,23,0.00,,---,0.00,100.00,VWS V14.01,2013-12-18 19:50:00,
2013-12-18 13:55:00,65.2,26.5,29.74,SSW,201,19.0,28.0,23,0.00,,---,0.00,91.00,VWS V14.01,2013-12-18 19:55:00,
2013-12-18 14:00:00,65.3,26.6,29.74,SSW,207,21.0,26.0,23,0.00,,---,0.00,93.00,VWS V14.01,2013-12-18 20:00:00,
2013-12-18 14:05:00,65.5,25.7,29.73,SW,224,20.0,27.0,22,0.00,,---,0.00,95.00,VWS V14.01,2013-12-18 20:05:00,
2013-12-18 14:10:00,66.1,26.2,29.74,SSW,200,15.0,27.0,22,0.00,,---,0.00,90.00,VWS V14.01,2013-12-18 20:10:00,
2013-12-18 14:15:00,66.3,26.4,29.73,SSE,163,9.0,27.0,22,0.00,,---,0.00,91.00,VWS V14.01,2013-12-18 20:15:00,
2013-12-18 14:20:00,66.3,26.4,29.73,SSW,198,16.0,27.0,22,0.00,,---,0.00,97.00,VWS V14.01,2013-12-18 20:20:00,
2013-12-18 14:25:00,66.3,26.4,29.73,SSW,205,21.0,27.0,22,0.00,,---,0.00,97.00,VWS V14.01,2013-12-18 20:25:00,
2013-12-18 14:30:00,66.6,26.6,29.73,SSW,196,10.0,17.0,22,0.00,,---,0.00,90.00,VWS V14.01,2013-12-18 20:30:00,
2013-12-18 14:35:00,66.6,26.6,29.73,South,185,13.0,24.0,22,0.00,,---,0.00,90.00,VWS V14.01,2013-12-18 20:35:00,
2013-12-18 14:40:00,66.8,26.8,29.72,South,172,14.0,24.0,22,0.00,,---,0.00,81.00,VWS V14.01,2013-12-18 20:40:00,
2013-12-18 14:45:00,66.9,26.9,29.72,SSW,207,7.0,26.0,22,0.00,,---,0.00,81.00,VWS V14.01,2013-12-18 20:45:00,
2013-12-18 14:50:00,66.8,26.8,29.72,South,188,15.0,26.0,22,0.00,,---,0.00,86.00,VWS V14.01,2013-12-18 20:50:00,
2013-12-18 14:55:00,66.9,26.9,29.72,SSW,207,10.0,26.0,22,0.00,,---,0.00,84.00,VWS V14.01,2013-12-18 20:55:00,
2013-12-18 15:00:00,67.4,27.3,29.72,SSW,196,16.0,18.0,22,0.00,,---,0.00,77.00,VWS V14.01,2013-12-18 21:00:00,
2013-12-18 15:05:00,67.4,27.3,29.71,SW,223,6.0,19.0,22,0.00,,---,0.00,72.00,VWS V14.01,2013-12-18 21:05:00,
2013-12-18 15:10:00,67.8,26.5,29.71,South,188,15.0,19.0,21,0.00,,---,0.00,67.00,VWS V14.01,2013-12-18 21:10:00,
2013-12-18 15:15:00,67.9,26.6,29.71,South,188,19.0,21.0,21,0.00,,---,0.00,63.00,VWS V14.01,2013-12-18 21:15:00,
2013-12-18 15:20:00,67.8,26.5,29.71,South,171,18.0,23.0,21,0.00,,---,0.00,63.00,VWS V14.01,2013-12-18 21:20:00,
2013-12-18 15:25:00,67.6,26.3,29.71,South,184,12.0,23.0,21,0.00,,---,0.00,63.00,VWS V14.01,2013-12-18 21:25:00,
2013-12-18 15:30:00,67.6,27.4,29.71,WSW,239,7.0,11.0,22,0.00,,---,0.00,67.00,VWS V14.01,2013-12-18 21:30:00,
2013-12-18 15:35:00,67.6,27.4,29.71,SSW,209,19.0,24.0,22,0.00,,---,0.00,67.00,VWS V14.01,2013-12-18 21:35:00,
2013-12-18 15:40:00,67.4,27.3,29.71,SSW,194,15.0,24.0,22,0.00,,---,0.00,63.00,VWS V14.01,2013-12-18 21:40:00,
2013-12-18 15:45:00,67.4,27.3,29.71,SSW,198,15.0,26.0,22,0.00,,---,0.00,62.00,VWS V14.01,2013-12-18 21:45:00,
2013-12-18 15:50:00,67.4,28.4,29.71,South,184,16.0,26.0,23,0.00,,---,0.00,53.00,VWS V14.01,2013-12-18 21:50:00,
2013-12-18 15:55:00,66.9,27.9,29.71,SSE,150,11.0,26.0,23,0.00,,---,0.00,51.00,VWS V14.01,2013-12-18 21:55:00,
2013-12-18 16:00:00,66.6,27.7,29.71,SW,225,13.0,13.0,23,0.00,,---,0.00,54.00,VWS V14.01,2013-12-18 22:00:00,
2013-12-18 16:05:00,66.4,27.5,29.71,South,186,8.0,17.0,23,0.00,,---,0.00,53.00,VWS V14.01,2013-12-18 22:05:00,
2013-12-18 16:10:00,66.0,28.2,29.71,South,184,11.0,18.0,24,0.00,,---,0.00,42.00,VWS V14.01,2013-12-18 22:10:00,
2013-12-18 16:15:00,65.6,27.9,29.70,South,178,12.0,18.0,24,0.00,,---,0.00,37.00,VWS V14.01,2013-12-18 22:15:00,
2013-12-18 16:20:00,65.2,28.5,29.70,South,175,7.0,18.0,25,0.00,,---,0.00,30.00,VWS V14.01,2013-12-18 22:20:00,
2013-12-18 16:25:00,64.8,28.2,29.70,South,171,7.0,18.0,25,0.00,,---,0.00,26.00,VWS V14.01,2013-12-18 22:25:00,
2013-12-18 16:30:00,64.7,28.1,29.70,SSE,161,8.0,12.0,25,0.00,,---,0.00,28.00,VWS V14.01,2013-12-18 22:30:00,
2013-12-18 16:35:00,64.3,27.8,29.70,SSW,210,5.0,12.0,25,0.00,,---,0.00,30.00,VWS V14.01,2013-12-18 22:35:00,
2013-12-18 16:40:00,64.0,28.5,29.70,SSW,193,9.0,14.0,26,0.00,,---,0.00,25.00,VWS V14.01,2013-12-18 22:40:00,
2013-12-18 16:45:00,63.5,28.0,29.70,South,188,10.0,14.0,26,0.00,,---,0.00,23.00,VWS V14.01,2013-12-18 22:45:00,
2013-12-18 16:50:00,63.2,27.8,29.70,South,171,7.0,14.0,26,0.00,,---,0.00,21.00,VWS V14.01,2013-12-18 22:50:00,
2013-12-18 16:55:00,62.7,28.3,29.70,South,178,8.0,14.0,27,0.00,,---,0.00,19.00,VWS V14.01,2013-12-18 22:55:00,
2013-12-18 17:00:00,62.3,27.9,29.69,SSW,201,8.0,11.0,27,0.00,,---,0.00,12.00,VWS V14.01,2013-12-18 23:00:00,
2013-12-18 17:05:00,61.6,28.2,29.69,South,181,7.0,12.0,28,0.00,,---,0.00,7.00,VWS V14.01,2013-12-18 23:05:00,
2013-12-18 17:10:00,61.2,27.9,29.69,South,184,6.0,14.0,28,0.00,,---,0.00,0.00,VWS V14.01,2013-12-18 23:10:00,
2013-12-18 17:15:00,60.7,27.4,29.69,South,179,6.0,14.0,28,0.00,,---,0.00,0.00,VWS V14.01,2013-12-18 23:15:00,
2013-12-18 17:20:00,60.2,27.9,29.69,SSE,161,8.0,14.0,29,0.00,,---,0.00,0.00,VWS V14.01,2013-12-18 23:20:00,
2013-12-18 17:25:00,59.6,28.1,29.69,South,175,9.0,14.0,30,0.00,,---,0.00,0.00,VWS V14.01,2013-12-18 23:25:00,
2013-12-18 17:30:00,59.3,28.7,29.69,South,178,7.0,8.0,31,0.00,,---,0.00,0.00,VWS V14.01,2013-12-18 23:30:00,
2013-12-18 17:35:00,58.9,29.1,29.69,South,188,6.0,9.0,32,0.00,,---,0.00,0.00,VWS V14.01,2013-12-18 23:35:00,
2013-12-18 17:40:00,58.4,29.4,29.69,South,186,5.0,9.0,33,0.00,,---,0.00,0.00,VWS V14.01,2013-12-18 23:40:00,
2013-12-18 17:45:00,58.3,29.3,29.69,SSW,197,4.0,9.0,33,0.00,,---,0.00,0.00,VWS V14.01,2013-12-18 23:45:00,
2013-12-18 17:50:00,58.1,29.9,29.69,South,182,8.0,10.0,34,0.00,,---,0.00,0.00,VWS V14.01,2013-12-18 23:50:00,
2013-12-18 17:55:00,58.0,30.5,29.69,South,180,7.0,11.0,35,0.00,,---,0.00,0.00,VWS V14.01,2013-12-18 23:55:00,
2013-12-18 18:00:00,57.8,30.4,29.68,South,178,7.0,9.0,35,0.00,,---,0.00,0.00,VWS V14.01,2013-12-19 00:00:00,
2013-12-18 18:05:00,57.5,30.1,29.68,South,178,8.0,9.0,35,0.00,,---,0.00,0.00,VWS V14.01,2013-12-19 00:05:00,
2013-12-18 18:10:00,57.0,30.3,29.69,South,172,6.0,10.0,36,0.00,,---,0.00,0.00,VWS V14.01,2013-12-19 00:10:00,
2013-12-18 18:15:00,56.5,30.6,29.69,SSE,166,5.0,10.0,37,0.00,,---,0.00,0.00,VWS V14.01,2013-12-19 00:15:00,
2013-12-18 18:20:00,56.0,30.1,29.69,South,170,6.0,10.0,37,0.00,,---,0.00,0.00,VWS V14.01,2013-12-19 00:20:00,
2013-12-18 18:25:00,55.6,30.4,29.69,South,184,4.0,10.0,38,0.00,,---,0.00,0.00,VWS V14.01,2013-12-19 00:25:00,
2013-12-18 18:30:00,55.4,30.2,29.69,South,170,6.0,7.0,38,0.00,,---,0.00,0.00,VWS V14.01,2013-12-19 00:30:00,
2013-12-18 18:35:00,55.3,30.8,29.69,South,170,5.0,8.0,39,0.00,,---,0.00,0.00,VWS V14.01,2013-12-19 00:35:00,
2013-12-18 18:40:00,55.1,30.6,29.69,SSE,163,7.0,8.0,39,0.00,,---,0.00,0.00,VWS V14.01,2013-12-19 00:40:00,
2013-12-18 18:45:00,54.8,30.3,29.69,South,174,7.0,8.0,39,0.00,,---,0.00,0.00,VWS V14.01,2013-12-19 00:45:00,
2013-12-18 18:50:00,54.7,30.9,29.69,SSE,168,7.0,9.0,40,0.00,,---,0.00,0.00,VWS V14.01,2013-12-19 00:50:00,
2013-12-18 18:55:00,54.5,30.7,29.69,South,177,10.0,11.0,40,0.00,,---,0.00,0.00,VWS V14.01,2013-12-19 00:55:00,
2013-12-18 19:00:00,54.7,30.2,29.69,South,171,8.0,9.0,39,0.00,,---,0.00,0.00,VWS V14.01,2013-12-19 01:00:00,
2013-12-18 19:05:00,55.0,30.5,29.69,SSW,200,8.0,13.0,39,0.00,,---,0.00,0.00,VWS V14.01,2013-12-19 01:05:00,
2013-12-18 19:10:00,55.1,30.0,29.69,SSW,193,10.0,13.0,38,0.00,,---,0.00,0.00,VWS V14.01,2013-12-19 01:10:00,
2013-12-18 19:15:00,55.1,30.0,29.69,SSW,197,6.0,13.0,38,0.00,,---,0.00,0.00,VWS V14.01,2013-12-19 01:15:00,
2013-12-18 19:20:00,54.8,29.7,29.69,South,178,5.0,13.0,38,0.00,,---,0.00,0.00,VWS V14.01,2013-12-19 01:20:00,
2013-12-18 19:25:00,54.7,29.6,29.69,South,181,6.0,13.0,38,0.00,,---,0.00,0.00,VWS V14.01,2013-12-19 01:25:00,
2013-12-18 19:30:00,54.7,29.6,29.69,South,189,6.0,10.0,38,0.00,,---,0.00,0.00,VWS V14.01,2013-12-19 01:30:00,
2013-12-18 19:35:00,54.7,29.6,29.69,South,184,3.0,10.0,38,0.00,,---,0.00,0.00,VWS V14.01,2013-12-19 01:35:00,
2013-12-18 19:40:00,55.0,29.9,29.69,SSW,200,8.0,12.0,38,0.00,,---,0.00,0.00,VWS V14.01,2013-12-19 01:40:00,
2013-12-18 19:45:00,55.0,29.9,29.69,SSW,197,9.0,13.0,38,0.00,,---,0.00,0.00,VWS V14.01,2013-12-19 01:45:00,
2013-12-18 19:50:00,54.8,29.7,29.69,SSW,193,6.0,13.0,38,0.00,,---,0.00,0.00,VWS V14.01,2013-12-19 01:50:00,
2013-12-18 19:55:00,54.5,30.1,29.69,SSE,163,9.0,13.0,39,0.00,,---,0.00,0.00,VWS V14.01,2013-12-19 01:55:00,
2013-12-18 20:00:00,54.5,30.1,29.69,SW,215,10.0,11.0,39,0.00,,---,0.00,0.00,VWS V14.01,2013-12-19 02:00:00,
2013-12-18 20:05:00,54.4,28.0,29.69,SSW,192,10.0,13.0,36,0.00,,---,0.00,0.00,VWS V14.01,2013-12-19 02:05:00,
2013-12-18 20:10:00,54.1,30.3,29.69,South,178,8.0,13.0,40,0.00,,---,0.00,0.00,VWS V14.01,2013-12-19 02:10:00,
2013-12-18 20:15:00,53.8,30.7,29.69,South,178,7.0,13.0,41,0.00,,---,0.00,0.00,VWS V14.01,2013-12-19 02:15:00,
2013-12-18 20:20:00,53.5,30.4,29.69,SSW,205,6.0,13.0,41,0.00,,---,0.00,0.00,VWS V14.01,2013-12-19 02:20:00,
2013-12-18 20:25:00,53.3,30.2,29.69,SSE,166,10.0,13.0,41,0.00,,---,0.00,0.00,VWS V14.01,2013-12-19 02:25:00,
2013-12-18 20:30:00,53.2,30.7,29.69,South,187,6.0,11.0,42,0.00,,---,0.00,0.00,VWS V14.01,2013-12-19 02:30:00,
2013-12-18 20:35:00,52.9,30.5,29.69,South,179,10.0,11.0,42,0.00,,---,0.00,0.00,VWS V14.01,2013-12-19 02:35:00,
2013-12-18 20:40:00,52.9,30.5,29.69,South,171,7.0,11.0,42,0.00,,---,0.00,0.00,VWS V14.01,2013-12-19 02:40:00,
2013-12-18 20:45:00,52.9,30.5,29.69,SSW,195,4.0,11.0,42,0.00,,---,0.00,0.00,VWS V14.01,2013-12-19 02:45:00,
2013-12-18 20:50:00,53.1,30.6,29.69,South,182,7.0,11.0,42,0.00,,---,0.00,0.00,VWS V14.01,2013-12-19 02:50:00,
2013-12-18 20:55:00,53.2,30.7,29.68,South,180,6.0,13.0,42,0.00,,---,0.00,0.00,VWS V14.01,2013-12-19 02:55:00,
2013-12-18 21:00:00,53.5,31.0,29.68,SSW,194,6.0,12.0,42,0.00,,---,0.00,0.00,VWS V14.01,2013-12-19 03:00:00,
2013-12-18 21:05:00,53.6,30.5,29.68,South,173,7.0,12.0,41,0.00,,---,0.00,0.00,VWS V14.01,2013-12-19 03:05:00,
2013-12-18 21:10:00,53.9,30.8,29.68,South,182,6.0,14.0,41,0.00,,---,0.00,0.00,VWS V14.01,2013-12-19 03:10:00,
2013-12-18 21:15:00,53.9,28.9,29.68,South,189,8.0,14.0,38,0.00,,---,0.00,0.00,VWS V14.01,2013-12-19 03:15:00,
2013-12-18 21:20:00,53.9,30.8,29.68,South,171,8.0,14.0,41,0.00,,---,0.00,0.00,VWS V14.01,2013-12-19 03:20:00,
2013-12-18 21:25:00,53.9,31.4,29.67,South,187,9.0,14.0,42,0.00,,---,0.00,0.00,VWS V14.01,2013-12-19 03:25:00,
2013-12-18 21:30:00,53.9,31.4,29.67,SSW,192,14.0,14.0,42,0.00,,---,0.00,0.00,VWS V14.01,2013-12-19 03:30:00,
2013-12-18 21:35:00,54.1,31.5,29.67,South,171,10.0,14.0,42,0.00,,---,0.00,0.00,VWS V14.01,2013-12-19 03:35:00,
2013-12-18 21:40:00,54.1,31.5,29.67,South,185,16.0,16.0,42,0.00,,---,0.00,0.00,VWS V14.01,2013-12-19 03:40:00,
2013-12-18 21:45:00,54.1,31.5,29.67,South,173,13.0,16.0,42,0.00,,---,0.00,0.00,VWS V14.01,2013-12-19 03:45:00,
2013-12-18 21:50:00,53.9,31.4,29.67,SSW,201,11.0,16.0,42,0.00,,---,0.00,0.00,VWS V14.01,2013-12-19 03:50:00,
2013-12-18 21:55:00,53.8,31.3,29.67,South,182,9.0,16.0,42,0.00,,---,0.00,0.00,VWS V14.01,2013-12-19 03:55:00,
2013-12-18 22:00:00,53.8,31.9,29.68,SW,223,3.0,12.0,43,0.00,,---,0.00,0.00,VWS V14.01,2013-12-19 04:00:00,
2013-12-18 22:05:00,53.6,31.7,29.67,South,178,9.0,14.0,43,0.00,,---,0.00,0.00,VWS V14.01,2013-12-19 04:05:00,
2013-12-18 22:10:00,53.5,31.6,29.68,South,173,9.0,17.0,43,0.00,,---,0.00,0.00,VWS V14.01,2013-12-19 04:10:00,
2013-12-18 22:15:00,53.5,31.6,29.68,South,173,11.0,17.0,43,0.00,,---,0.00,0.00,VWS V14.01,2013-12-19 04:15:00,
2013-12-18 22:20:00,53.3,32.0,29.67,SSW,192,6.0,17.0,44,0.00,,---,0.00,0.00,VWS V14.01,2013-12-19 04:20:00,
2013-12-18 22:25:00,53.1,31.8,29.68,South,175,8.0,17.0,44,0.00,,---,0.00,0.00,VWS V14.01,2013-12-19 04:25:00,
2013-12-18 22:30:00,52.9,32.2,29.68,SSW,213,4.0,9.0,45,0.00,,---,0.00,0.00,VWS V14.01,2013-12-19 04:30:00,
2013-12-18 22:35:00,52.8,32.1,29.68,SSW,202,3.0,10.0,45,0.00,,---,0.00,0.00,VWS V14.01,2013-12-19 04:35:00,
2013-12-18 22:40:00,52.9,32.2,29.68,SW,215,9.0,13.0,45,0.00,,---,0.00,0.00,VWS V14.01,2013-12-19 04:40:00,
2013-12-18 22:45:00,53.1,32.3,29.67,South,184,5.0,14.0,45,0.00,,---,0.00,0.00,VWS V14.01,2013-12-19 04:45:00,
2013-12-18 22:50:00,53.2,32.4,29.67,SSW,202,8.0,14.0,45,0.00,,---,0.00,0.00,VWS V14.01,2013-12-19 04:50:00,
2013-12-18 22:55:00,53.3,32.5,29.67,SW,226,5.0,14.0,45,0.00,,---,0.00,0.00,VWS V14.01,2013-12-19 04:55:00,
2013-12-18 23:00:00,53.3,32.5,29.67,South,186,4.0,10.0,45,0.00,,---,0.00,0.00,VWS V14.01,2013-12-19 05:00:00,
2013-12-18 23:01:00,53.3,32.5,29.67,South,186,3.0,10.0,45,0.00,,---,0.00,0.00,VWS V14.01,2013-12-19 05:01:00,
2013-12-18 23:02:00,53.3,33.1,29.67,SSW,213,11.0,11.0,46,0.00,,---,0.00,0.00,VWS V14.01,2013-12-19 05:02:00,
2013-12-18 23:07:00,53.2,33.0,29.67,South,182,4.0,14.0,46,0.00,,---,0.00,0.00,VWS V14.01,2013-12-19 05:07:00,
2013-12-18 23:12:00,52.9,33.2,29.67,South,182,8.0,14.0,47,0.00,,---,0.00,0.00,VWS V14.01,2013-12-19 05:12:00,
2013-12-18 23:17:00,52.6,33.0,29.67,SSW,195,3.0,14.0,47,0.00,,---,0.00,0.00,VWS V14.01,2013-12-19 05:17:00,
2013-12-18 23:22:00,52.5,33.4,29.67,SSW,193,4.0,14.0,48,0.00,,---,0.00,0.00,VWS V14.01,2013-12-19 05:22:00,
2013-12-18 23:27:00,52.3,33.2,29.67,South,189,6.0,14.0,48,0.00,,---,0.00,0.00,VWS V14.01,2013-12-19 05:27:00,
2013-12-18 23:30:00,52.2,33.1,29.67,SSW,198,3.0,14.0,48,0.00,,---,0.00,0.00,VWS V14.01,2013-12-19 05:30:00,
2013-12-18 23:32:00,52.2,33.1,29.67,South,190,8.0,11.0,48,0.00,,---,0.00,0.00,VWS V14.01,2013-12-19 05:32:00,
2013-12-18 23:37:00,52.3,33.7,29.67,South,188,8.0,13.0,49,0.00,,---,0.00,0.00,VWS V14.01,2013-12-19 05:37:00,
2013-12-18 23:42:00,52.3,33.7,29.67,South,177,8.0,13.0,49,0.00,,---,0.00,0.00,VWS V14.01,2013-12-19 05:42:00,
2013-12-18 23:47:00,52.3,34.2,29.67,SW,229,7.0,14.0,50,0.00,,---,0.00,0.00,VWS V14.01,2013-12-19 05:47:00,
2013-12-18 23:52:00,52.3,34.2,29.67,SSW,206,11.0,14.0,50,0.00,,---,0.00,0.00,VWS V14.01,2013-12-19 05:52:00,
2013-12-18 23:57:00,52.2,34.1,29.67,South,169,5.0,14.0,50,0.00,,---,0.00,0.00,VWS V14.01,2013-12-19 05:57:00,